(520740) = 2014 QB474

Discovered at Kitt Peak on 2009-08-28 by Spacewatch.

Orbit

Orbit type: Main Belt

Note: WebGL enabled browser required.

epoch2023-09-13.0
epoch JD2460200.5
perihelion date2020-06-05.28257
perihelion JD2459005.78257
argument of perihelion (°)270.18576
ascending node (°)192.57235
inclination (°)11.87729
eccentricity0.0705713
perihelion distance (AU)2.6822182
Tisserand w.r.t. Jupiter3.3
ΔV w.r.t. Earth (km/sec)10.9
semimajor axis (AU)2.8858785
mean anomaly (°)240.18838
mean daily motion (°/day)0.20104200
aphelion distance (AU)3.090
period (years)4.9
P-vector [x]-0.21617528
P-vector [y]0.95752739
P-vector [z]0.19081283
Q-vector [x]-0.97532618
Q-vector [y]-0.20281586
Q-vector [z]-0.08720414
absolute magnitude16.74
phase slope0.15
uncertainty0
referenceMPO 780424
observations used198
oppositions12
arc length (days)8343
first opposition used2000
last opposition used2023
residual rms (arc-secs)0.78
perturbers coarse indicatorM-v
perturbers precise indicator003Ek
first observation date used2000-11-30.0
last observation date used2023-10-04.0
computer nameMPCLINUX
Minimum Orbit Intersection Distances (in AU)
for orbit epoch: 2460200.5, reference: E2023-T29
Mercury2.38375
Venus1.98869
Earth1.73071
Mars1.13539
Jupiter2.05303
Saturn6.40443
Uranus15.6425
Neptune26.9746

Observations

199 total observations over interval: 2000 11 30.414280 – 2023 10 04.280197
These data are available for download (format description).

Date (UT) J2000 RA J2000 Dec Magn Location Ref
2000 11 30.414280 08 47 34.955 +02 34 21.21 21.47 V 645 – Apache Point-Sloan Digital Sky Survey MPS 888729
2000 11 30.417752 08 47 34.988 +02 34 20.15 22.17   645 – Apache Point-Sloan Digital Sky Survey MPS 888729
2009 08 28.45260 02 52 25.13 +13 11 09.0 21.8 V 291 – LPL/Spacewatch II MPS 885717
2009 08 28.46320 02 52 25.41 +13 11 07.4 21.9 V 291 – LPL/Spacewatch II MPS 885717
2009 08 28.47468 02 52 25.70 +13 11 05.7 21.8 V 291 – LPL/Spacewatch II MPS 885717
2009 10 27.30492 02 38 21.12 +07 14 54.3 20.4 V G96 – Mt. Lemmon Survey MPS 885717
2009 10 27.31112 02 38 20.86 +07 14 51.2 20.5 V G96 – Mt. Lemmon Survey MPS 885717
2009 10 27.31740 02 38 20.54 +07 14 48.5 20.4 V G96 – Mt. Lemmon Survey MPS 885717
2009 10 27.32360 02 38 20.22 +07 14 45.2 20.6 V G96 – Mt. Lemmon Survey MPS 885717
2012 05 16.37623 15 54 03.96 -07 26 26.6 21.2 V G96 – Mt. Lemmon Survey MPS 885717
2012 05 16.37982 15 54 03.78 -07 26 25.9 21.6 V G96 – Mt. Lemmon Survey MPS 885717
2012 05 16.38343 15 54 03.60 -07 26 24.4 20.5 V G96 – Mt. Lemmon Survey MPS 885717
2012 05 16.38701 15 54 03.45 -07 26 23.2 20.6 V G96 – Mt. Lemmon Survey MPS 885717
2013 08 15.34504 21 04 33.951 -01 52 27.35 20.8 i F51 – Pan-STARRS 1, Haleakala MPS 885717
2013 08 15.35661 21 04 33.417 -01 52 31.70 20.7 i F51 – Pan-STARRS 1, Haleakala MPS 885718
2013 08 15.41548 21 04 30.679 -01 52 52.71 21.1 r F51 – Pan-STARRS 1, Haleakala MPS 885718
2013 08 15.42603 21 04 30.222 -01 52 56.73 21.2 r F51 – Pan-STARRS 1, Haleakala MPS 885718
2014 08 31.54900 03 26 16.201 +13 47 11.13 21.9 w F51 – Pan-STARRS 1, Haleakala MPS 885718
2014 08 31.56197 03 26 16.636 +13 47 09.27 21.8 w F51 – Pan-STARRS 1, Haleakala MPS 885718
2014 08 31.57489 03 26 17.040 +13 47 07.40 21.9 w F51 – Pan-STARRS 1, Haleakala MPS 885718
2014 08 31.58788 03 26 17.485 +13 47 05.34 21.6 w F51 – Pan-STARRS 1, Haleakala MPS 885718
2014 10 15.35834 03 28 55.98 +09 59 38.9 21.1 V 691 – Steward Observatory, Kitt Peak-Spacewatch MPS 888729
2014 10 15.37874 03 28 55.39 +09 59 30.2 21.2 V 691 – Steward Observatory, Kitt Peak-Spacewatch MPS 888729
2014 10 15.39911 03 28 54.79 +09 59 21.3 20.9 V 691 – Steward Observatory, Kitt Peak-Spacewatch MPS 888729
2014 10 19.24581 03 26 56.10 +09 31 06.5 21.5 V 691 – Steward Observatory, Kitt Peak-Spacewatch MPS 885718
2014 10 19.26617 03 26 55.38 +09 30 57.1 21.0 V 691 – Steward Observatory, Kitt Peak-Spacewatch MPS 885718
2014 10 19.28654 03 26 54.69 +09 30 48.2 21.0 V 691 – Steward Observatory, Kitt Peak-Spacewatch MPS 885718
2014 10 25.54316 03 23 04.106 +08 43 45.79 20.7 w F51 – Pan-STARRS 1, Haleakala MPS 885718
2014 10 25.55609 03 23 03.570 +08 43 39.85 20.6 w F51 – Pan-STARRS 1, Haleakala MPS 885718
2014 10 29.42217 03 20 22.412 +08 14 24.17 20.5 w F51 – Pan-STARRS 1, Haleakala MPS 885718
2014 10 29.43504 03 20 21.840 +08 14 18.26 20.5 w F51 – Pan-STARRS 1, Haleakala MPS 885718
2014 10 29.44795 03 20 21.249 +08 14 12.52 20.5 w F51 – Pan-STARRS 1, Haleakala MPS 885718
2014 11 24.34441 03 00 10.428 +05 22 46.35 20.8 w F51 – Pan-STARRS 1, Haleakala MPS 885718
2014 11 24.35953 03 00 09.741 +05 22 41.82 20.7 w F51 – Pan-STARRS 1, Haleakala MPS 885718
2014 11 24.37459 03 00 09.053 +05 22 37.25 20.7 w F51 – Pan-STARRS 1, Haleakala MPS 885718
2014 11 24.38972 03 00 08.366 +05 22 32.65 20.6 w F51 – Pan-STARRS 1, Haleakala MPS 885718
2014 12 11.26667 02 50 07.982 +04 22 34.11 21.0 w F51 – Pan-STARRS 1, Haleakala MPS 885718
2014 12 11.28190 02 50 07.569 +04 22 32.31 20.8 w F51 – Pan-STARRS 1, Haleakala MPS 885718
2014 12 11.29339 02 50 07.256 +04 22 30.87 21.0 w F51 – Pan-STARRS 1, Haleakala MPS 885718
2014 12 11.30494 02 50 06.933 +04 22 29.60 21.1 w F51 – Pan-STARRS 1, Haleakala MPS 885718
2015 01 16.24182 02 50 07.704 +05 00 39.45 21.4 w F51 – Pan-STARRS 1, Haleakala MPS 885718
2015 01 16.25406 02 50 08.002 +05 00 41.88 21.7 w F51 – Pan-STARRS 1, Haleakala MPS 885718
2015 01 16.26628 02 50 08.303 +05 00 44.63 21.6 w F51 – Pan-STARRS 1, Haleakala MPS 885718
2016 02 27.40662 10 10 47.757 -00 38 09.57 20.3 r F51 – Pan-STARRS 1, Haleakala MPS 885718
2016 02 27.41906 10 10 47.187 -00 38 03.51 20.4 r F51 – Pan-STARRS 1, Haleakala MPS 885718
2016 02 27.43138 10 10 46.599 -00 37 57.53 20.3 r F51 – Pan-STARRS 1, Haleakala MPS 885718
2016 03 13.29360 10 00 48.103 +01 28 32.33 20.7 w F51 – Pan-STARRS 1, Haleakala MPS 885718
2016 03 13.30598 10 00 47.657 +01 28 38.62 20.7 w F51 – Pan-STARRS 1, Haleakala MPS 885718
2016 03 13.31837 10 00 47.213 +01 28 45.00 20.6 w F51 – Pan-STARRS 1, Haleakala MPS 885718
2016 03 30.24901 09 54 02.326 +03 43 18.16 20.9 w F51 – Pan-STARRS 1, Haleakala MPS 885718
2016 03 30.26036 09 54 02.164 +03 43 23.09 20.9 w F51 – Pan-STARRS 1, Haleakala MPS 885718
2016 03 30.27172 09 54 02.011 +03 43 27.82 21.1 w F51 – Pan-STARRS 1, Haleakala MPS 885718
2016 03 30.28318 09 54 01.831 +03 43 32.75 21.0 w F51 – Pan-STARRS 1, Haleakala MPS 885718
2016 04 29.24977 09 58 11.566 +06 11 44.42 21.8 w F51 – Pan-STARRS 1, Haleakala MPS 885718
2016 04 29.26175 09 58 11.886 +06 11 45.78 21.6 w F51 – Pan-STARRS 1, Haleakala MPS 885718
2016 04 29.28577 09 58 12.520 +06 11 49.64 21.4 w F51 – Pan-STARRS 1, Haleakala MPS 885718
2017 06 14.19677 16 08 58.38 -06 18 02.0 21.1 V G96 – Mt. Lemmon Survey MPS 885718
2017 06 14.20096 16 08 58.16 -06 18 01.0 21.1 V G96 – Mt. Lemmon Survey MPS 885718
2017 06 14.20517 16 08 57.97 -06 18 00.6 21.4 V G96 – Mt. Lemmon Survey MPS 885718
2017 06 14.20937 16 08 57.81 -06 18 00.3 21.2 V G96 – Mt. Lemmon Survey MPS 885718
2018 07 12.48131 21 59 19.027 +01 40 25.89 21.6 w F51 – Pan-STARRS 1, Haleakala MPS 907295
2018 07 12.49462 21 59 18.742 +01 40 25.99 21.7 w F51 – Pan-STARRS 1, Haleakala MPS 907295
2018 07 12.50797 21 59 18.460 +01 40 25.49 21.8 w F51 – Pan-STARRS 1, Haleakala MPS 907295
2018 07 12.52129 21 59 18.168 +01 40 25.14 21.5 w F51 – Pan-STARRS 1, Haleakala MPS 907295
2018 07 13.52519 21 58 57.085 +01 39 58.37 21.6 w F51 – Pan-STARRS 1, Haleakala MPS 907295
2018 07 13.53721 21 58 56.819 +01 39 57.85 21.7 w F51 – Pan-STARRS 1, Haleakala MPS 907295
2018 07 13.54933 21 58 56.528 +01 39 57.48 21.3 w F51 – Pan-STARRS 1, Haleakala MPS 907295
2019 09 30.39637 04 12 24.87 +12 19 06.2 21.4 G G96 – Mt. Lemmon Survey MPS 1056877
2019 09 30.40706 04 12 24.91 +12 19 02.0 21.9 G G96 – Mt. Lemmon Survey MPS 1056877
2019 09 30.41266 04 12 24.92 +12 19 00.4 21.2 G G96 – Mt. Lemmon Survey MPS 1056877
2019 09 30.41826 04 12 24.97 +12 18 58.1 21.9 G G96 – Mt. Lemmon Survey MPS 1056877
2019 10 09.50256 04 12 28.899 +11 25 22.90 21.1 i F51 – Pan-STARRS 1, Haleakala MPS 1065044
2019 10 09.51476 04 12 28.816 +11 25 18.53 20.9 i F51 – Pan-STARRS 1, Haleakala MPS 1065044
2019 10 09.52686 04 12 28.734 +11 25 13.81 21.0 i F51 – Pan-STARRS 1, Haleakala MPS 1065044
2019 10 24.58677 04 07 58.871 +09 43 53.26 21.1 w F51 – Pan-STARRS 1, Haleakala MPS 1065044
2019 10 24.59784 04 07 58.519 +09 43 48.38 20.9 w F51 – Pan-STARRS 1, Haleakala MPS 1065044
2019 10 24.60885 04 07 58.195 +09 43 43.79 20.8 w F51 – Pan-STARRS 1, Haleakala MPS 1065044
2019 10 24.61978 04 07 57.863 +09 43 39.18 20.8 w F51 – Pan-STARRS 1, Haleakala MPS 1065044
2019 10 26.38829 04 07 04.83 +09 31 06.8 21.0 G G96 – Mt. Lemmon Survey MPS 1074990
2019 10 26.39343 04 07 04.68 +09 31 05.0 21.0 G G96 – Mt. Lemmon Survey MPS 1074990
2019 10 26.39856 04 07 04.48 +09 31 02.5 21.0 G G96 – Mt. Lemmon Survey MPS 1074990
2019 10 26.40371 04 07 04.32 +09 31 00.4 21.2 G G96 – Mt. Lemmon Survey MPS 1074990
2019 10 31.42909 04 04 11.515 +08 55 15.13 20.7 w F51 – Pan-STARRS 1, Haleakala MPS 1074990
2019 10 31.43938 04 04 11.110 +08 55 10.71 20.7 w F51 – Pan-STARRS 1, Haleakala MPS 1074990
2019 10 31.44066 04 04 11.060 +08 55 10.20 20.7 w F51 – Pan-STARRS 1, Haleakala MPS 1074990
2019 10 31.45096 04 04 10.652 +08 55 05.82 20.8 w F51 – Pan-STARRS 1, Haleakala MPS 1074990
2019 10 31.45226 04 04 10.612 +08 55 05.37 21.1 w F51 – Pan-STARRS 1, Haleakala MPS 1074991
2019 10 31.46259 04 04 10.203 +08 55 00.75 20.7 w F51 – Pan-STARRS 1, Haleakala MPS 1074991
2019 10 31.46389 04 04 10.153 +08 55 00.39 20.6 w F51 – Pan-STARRS 1, Haleakala MPS 1074991
2019 11 08.34239 03 58 43.89 +07 59 42.8 20.7 G G96 – Mt. Lemmon Survey MPS 1081580
2019 11 08.34806 03 58 43.65 +07 59 40.5 20.7 G G96 – Mt. Lemmon Survey MPS 1081580
2019 11 08.35372 03 58 43.39 +07 59 38.1 20.9 G G96 – Mt. Lemmon Survey MPS 1081580
2019 11 08.35938 03 58 43.10 +07 59 35.2 21.2 G G96 – Mt. Lemmon Survey MPS 1081580
2019 11 29.38086 03 41 40.484 +05 55 44.36 20.5 w F52 – Pan-STARRS 2, Haleakala MPS 1089890
